CDT,Max TemperatureF,Mean TemperatureF,Min TemperatureF,Max Dew PointF,MeanDew PointF,Min DewpointF,Max Humidity, Mean Humidity, Min Humidity, Max Sea Level PressureIn, Mean Sea Level PressureIn, Min Sea Level PressureIn, Max VisibilityMiles, Mean VisibilityMiles, Min VisibilityMiles, Max Wind SpeedMPH, Mean Wind SpeedMPH, Max Gust SpeedMPH,PrecipitationIn, CloudCover, Events, WindDirDegrees
2013-3-1,23,20,17,21,17,14,93,85,74,30.32,30.24,30.16,10,9,3,15,11,17,0.00,8,Rain-Snow,3
2013-3-2,26,20,14,23,17,12,93,84,74,30.31,30.22,30.08,10,10,10,13,6,13,0.00,5,,221
2013-3-3,33,25,17,27,22,16,93,82,64,30.06,29.90,29.76,10,9,6,26,15,32,0.00,2,Rain,136
2013-3-4,32,29,26,32,29,25,100,97,86,29.95,29.80,29.70,10,4,0,25,17,33,0.00,8,Fog-Rain,112
2013-3-5,30,26,21,27,21,18,100,85,74,30.30,30.08,29.94,10,8,2,30,20,38,0.00,7,Rain-Snow,318
2013-3-6,24,19,14,21,18,12,100,88,74,30.39,30.33,30.26,10,10,9,16,10,22,0.00,7,,24
2013-3-7,35,24,14,28,22,14,100,89,75,30.28,30.21,30.13,10,8,3,22,14,25,0.00,2,,133
2013-3-8,44,34,23,37,30,21,100,90,76,30.20,30.10,29.94,7,5,2,23,13,30,0.07,2,Rain-Snow,129
2013-3-9,42,37,32,43,38,32,100,100,100,29.92,29.72,29.60,6,2,0,23,16,28,0.32,8,Fog-Rain,143
2013-3-10,32,28,23,32,27,21,100,98,93,29.85,29.80,29.71,9,2,0,33,25,41,0.04,8,Rain-Snow,358
2013-3-11,26,20,14,23,19,12,93,86,74,29.91,29.83,29.79,10,9,1,26,18,29,0.00,6,Rain-Snow,310
2013-3-12,28,21,14,27,19,12,100,85,74,30.24,30.05,29.91,10,7,0,31,17,38,0.00,5,Snow,302
2013-3-13,24,17,10,21,15,9,93,86,74,30.38,30.31,30.20,10,10,8,14,10,,0.00,1,,246
2013-3-14,41,32,23,36,29,19,100,84,75,30.18,30.06,29.99,10,9,5,23,12,28,0.00,2,,232
2013-3-15,39,36,32,36,35,32,100,98,87,30.01,29.83,29.73,10,4,0,15,9,18,0.00,5,Fog,38
2013-3-16,33,27,21,34,24,18,100,87,74,30.18,30.05,29.82,10,9,2,23,17,29,0.00,8,Rain,359
2013-3-17,33,24,14,30,20,10,93,84,79,30.17,29.97,29.77,10,10,3,22,15,26,0.00,5,,104
2013-3-18,32,24,15,32,19,9,100,81,63,29.96,29.78,29.65,10,6,0,37,24,45,0.01,6,Rain-Snow,287
2013-3-19,30,20,10,21,10,1,80,68,58,30.27,30.11,29.94,10,10,10,24,15,30,0.00,1,,311
2013-3-20,24,16,8,12,8,3,79,69,54,30.31,30.22,30.10,10,10,7,22,17,29,0.00,2,Snow,326
2013-3-21,28,18,8,19,11,3,86,76,68,30.09,30.01,29.93,10,10,10,14,9,13,0.00,0,,80
2013-3-22,30,22,14,25,18,10,93,80,64,30.04,30.00,29.98,10,10,6,12,7,14,0.00,2,,93
2013-3-23,32,28,24,25,23,21,93,82,69,30.12,30.07,30.02,10,9,3,16,7,16,0.00,7,Rain-Snow,36
2013-3-24,30,26,23,27,23,18,100,89,74,30.06,30.00,29.94,10,5,1,21,16,25,0.00,7,Rain-Snow,343
2013-3-25,32,28,23,27,22,19,100,83,69,30.27,30.13,30.01,10,8,1,23,18,31,0.00,7,Rain-Snow,341
2013-3-26,30,22,14,23,18,12,93,80,60,30.31,30.27,30.22,10,10,10,12,8,,0.00,1,,319
2013-3-27,41,32,23,32,27,21,100,83,65,30.27,30.24,30.20,10,10,8,14,8,,0.00,1,,130
2013-3-28,50,39,28,41,34,28,100,85,62,30.26,30.23,30.18,10,9,5,12,8,,0.00,2,,128
2013-3-29,57,45,33,43,37,32,100,79,55,30.22,30.15,30.03,10,9,4,17,10,23,0.00,1,,152
2013-3-30,59,49,39,50,42,36,100,81,48,30.03,29.93,29.88,10,9,4,25,12,34,0.08,4,Rain,273
2013-3-31,42,34,24,39,31,18,100,83,57,30.12,29.96,29.90,10,7,0,28,13,31,0.00,3,Fog-Snow,322